Location: Houhaj�rvi
(61.2833°N, 23.0000°E)
Time: 16:49:37
(UTC+00:00)

NOSS 2-3 (D) - Pass Details

Date: 27 February 2020
Orbit: 583 x 1629 km, 63.4° (Epoch: 25 March)

Event Time Altitude Azimuth Distance (km) Brightness Sun altitude
Rises 17:20:17 0° 214° (SW) 2,895 7.4 -12.1°
Reaches altitude 10° 17:22:26 10° 208° (SSW) 2,061 6.5 -12.3°
Maximum altitude 17:26:50 45° 135° (SE) 1,001 4.3 -12.8°
Enters shadow 17:31:18 14° 68° (ENE) 2,188 5.8 -13.4°
